This is the latest recevied weather packets stored in our database for station/object IK2ILW-6. If no packets are shown the sender has not sent any weather packets the latest 10 day(s).
| Time | Temp. | Humidity | Pressure | Rain* | Wind** | Luminosity | Snow |
|---|---|---|---|---|---|---|---|
| 1777713084 | 8.33° C | 72% | 1026.7 hPa | 0 mm | - | 788 W/m² | - |
| 1777712789 | 8.33° C | 71% | 1026.8 hPa | 0 mm | - | 763 W/m² | - |
| 1777712499 | 8.33° C | 71% | 1026.7 hPa | 0 mm | - | 770 W/m² | - |
| 1777712182 | 8.33° C | 70% | 1026.6 hPa | 0 mm | - | 738 W/m² | - |
| 1777711887 | 8.33° C | 70% | 1026.7 hPa | 0 mm | - | 729 W/m² | - |
| 1777711590 | 8.33° C | 72% | 1026.6 hPa | 0 mm | - | 735 W/m² | - |
| 1777711294 | 8.33° C | 74% | 1026.6 hPa | 0 mm | - | 729 W/m² | - |
| 1777710999 | 8.33° C | 69% | 1026.6 hPa | 0 mm | - | 715 W/m² | - |
| 1777710683 | 8.33° C | 72% | 1026.6 hPa | 0 mm | - | 705 W/m² | - |
| 1777710400 | 8.33° C | 70% | 1026.6 hPa | 0 mm | - | 693 W/m² | - |
| 1777710083 | 7.78° C | 72% | 1026.6 hPa | 0 mm | - | 677 W/m² | - |
| 1777709788 | 7.22° C | 75% | 1026.6 hPa | 0 mm | - | 664 W/m² | - |
| 1777709200 | 7.22° C | 74% | 1026.6 hPa | 0 mm | - | 645 W/m² | - |
| 1777708883 | 6.67° C | 75% | 1026.6 hPa | 0 mm | - | 626 W/m² | - |
| 1777708587 | 7.22° C | 72% | 1026.6 hPa | 0 mm | - | 613 W/m² | - |
| 1777708291 | 7.22° C | 73% | 1026.6 hPa | 0 mm | - | 603 W/m² | - |
| 1777707993 | 6.67° C | 76% | 1026.7 hPa | 0 mm | - | 585 W/m² | - |
| 1777707698 | 7.22° C | 73% | 1026.7 hPa | 0 mm | - | 573 W/m² | - |
| 1777707402 | 7.22° C | 75% | 1026.7 hPa | 0 mm | - | 561 W/m² | - |
| 1777707086 | 6.67° C | 77% | 1026.6 hPa | 0 mm | - | 545 W/m² | - |
| 1777706789 | 6.67° C | 74% | 1026.7 hPa | 0 mm | - | 529 W/m² | - |
| 1777706493 | 6.67° C | 73% | 1026.7 hPa | 0 mm | - | 519 W/m² | - |
| 1777706197 | 6.67° C | 73% | 1026.7 hPa | 0 mm | - | 501 W/m² | - |
| 1777705884 | 6.67° C | 73% | 1026.7 hPa | 0 mm | - | 490 W/m² | - |
| 1777705588 | 7.22° C | 73% | 1026.7 hPa | 0 mm | - | 478 W/m² | - |
* Rain latest hour (hover to see other rain measurements)
** Current wind speed in m/s (hover to see current wind gust speed)